Weather History for KI39 - September, 2013

Change the Weather History Date:

Wednesday, September 25, 2013

  Actual Average (KLOZ) Record (KLOZ)
Temperature  
Mean Temperature 67 °F 65 °F  
Max Temperature 75 °F 76 °F 90 °F (1961)
Min Temperature 59 °F 53 °F 35 °F (1965)
Degree Days  
Heating Degree Days 0 3  
Month to date heating degree days 26  
Since 1 July heating degree days 27  
Cooling Degree Days 2 3  
Month to date cooling degree days 132  
Growing Degree Days 17 (Base 50)    
Moisture  
Dew Point 60 °F    
Average Humidity 83    
Maximum Humidity 94    
Minimum Humidity 65    
Precipitation  
Precipitation 0.00 in 0.11 in 1.42 in (2000)
Month to date precipitation 2.80  
Sea Level Pressure  
Sea Level Pressure 29.89 in    
Wind  
Wind Speed 2 mph (East)    
Max Wind Speed 7 mph    
Max Gust Speed -    
Visibility 8 miles    
Events      
T = Trace of Precipitation, MM = Missing Value Source: NWS Daily Summary

Daily Weather History Graph

Daily Weather History Graph

Search for Another Location

Airport or City:

Trip Planner

Search our weather history database for the weather conditions in past years. The results will help you decide how hot, cold, wet, or windy it might be!

Date:

Astronomy

Sep. 25, 2013 Rise Set
Actual Time 7:27 AM EDT 7:29 PM EDT
Civil Twilight 7:01 AM EDT 7:55 PM EDT
Nautical Twilight 6:31 AM EDT 8:25 PM EDT
Astronomical Twilight 6:00 AM EDT 8:56 PM EDT
Moon 11:40 PM EDT (9/25) 1:26 PM EDT (9/25)
Length of Visible Light 12h 53m
Length of Day
12h 01m
Waning Gibbous, 64% of the Moon is Illuminated
Sep 25
Waning Gibbous
Sep 26
Last Quarter
Oct 4
New
Oct 11
First Quarter
Oct 18
Full

Hourly Weather History & Observations

Time (EDT) Temp. Dew Point Humidity Pressure Visibility Wind Dir Wind Speed Gust Speed Precip Events Conditions
12:15 AM 62.6 °F 57.2 °F 82% 29.92 in 10.0 mi East 3.5 mph - N/A   Scattered Clouds
12:35 AM 62.6 °F 59.0 °F 88% 29.92 in 10.0 mi East 3.5 mph - N/A   Mostly Cloudy
12:55 AM 62.6 °F 59.0 °F 88% 29.91 in 10.0 mi East 5.8 mph - N/A   Mostly Cloudy
1:15 AM 62.6 °F 59.0 °F 88% 29.90 in 10.0 mi East 4.6 mph - N/A   Mostly Cloudy
1:35 AM 62.6 °F 59.0 °F 88% 29.90 in 10.0 mi ESE 3.5 mph - N/A   Overcast
1:55 AM 62.6 °F 59.0 °F 88% 29.90 in 10.0 mi Calm Calm - N/A   Mostly Cloudy
2:15 AM 62.6 °F 59.0 °F 88% 29.90 in 0.8 mi East 3.5 mph - N/A   Overcast
2:35 AM 62.6 °F 59.0 °F 88% 29.89 in 10.0 mi East 3.5 mph - N/A   Scattered Clouds
2:55 AM 62.6 °F 57.2 °F 82% 29.88 in 10.0 mi Calm Calm - N/A   Clear
3:15 AM 62.6 °F 57.2 °F 82% 29.88 in 10.0 mi Calm Calm - N/A   Scattered Clouds
3:35 AM 62.6 °F 59.0 °F 88% 29.88 in 1.2 mi Calm Calm - N/A   Overcast
3:55 AM 60.8 °F 59.0 °F 94% 29.88 in 0.8 mi Calm Calm - N/A   Overcast
4:15 AM 62.6 °F 59.0 °F 88% 29.88 in 10.0 mi Calm Calm - N/A   Overcast
4:35 AM 62.6 °F 59.0 °F 88% 29.88 in 10.0 mi Calm Calm - N/A   Overcast
4:55 AM 62.6 °F 59.0 °F 88% 29.88 in 10.0 mi Calm Calm - N/A   Overcast
5:15 AM 62.6 °F 59.0 °F 88% 29.87 in 10.0 mi East 5.8 mph - N/A   Overcast
5:35 AM 62.6 °F 59.0 °F 88% 29.87 in 10.0 mi East 3.5 mph - N/A   Scattered Clouds
5:55 AM 62.6 °F 59.0 °F 88% 29.87 in 10.0 mi East 4.6 mph - N/A   Clear
6:15 AM 62.6 °F 59.0 °F 88% 29.87 in 10.0 mi East 3.5 mph - N/A   Clear
6:35 AM 62.6 °F 59.0 °F 88% 29.88 in 10.0 mi Calm Calm - N/A   Mostly Cloudy
6:55 AM 62.6 °F 59.0 °F 88% 29.88 in 10.0 mi Calm Calm - N/A   Overcast
7:15 AM 62.6 °F 59.0 °F 88% 29.88 in 2.0 mi Calm Calm - N/A   Overcast
7:35 AM 60.8 °F 59.0 °F 94% 29.88 in 10.0 mi ENE 3.5 mph - N/A   Overcast
7:55 AM 60.8 °F 59.0 °F 94% 29.89 in 10.0 mi East 3.5 mph - N/A   Overcast
8:15 AM 60.8 °F 59.0 °F 94% 29.89 in 10.0 mi Calm Calm - N/A   Mostly Cloudy
8:35 AM 62.6 °F 59.0 °F 88% 29.89 in 10.0 mi Calm Calm - N/A   Overcast
8:55 AM 62.6 °F 59.0 °F 88% 29.90 in 0.5 mi Calm Calm - N/A   Overcast
9:15 AM 62.6 °F 59.0 °F 88% 29.90 in 4.0 mi Calm Calm - N/A   Overcast
9:35 AM 64.4 °F 59.0 °F 83% 29.89 in 10.0 mi ESE 3.5 mph - N/A   Overcast
9:55 AM 64.4 °F 60.8 °F 88% 29.89 in 10.0 mi Calm Calm - N/A   Mostly Cloudy
10:15 AM 66.2 °F 60.8 °F 83% 29.90 in 10.0 mi Calm Calm - N/A   Scattered Clouds
10:35 AM 66.2 °F 60.8 °F 83% 29.90 in 1.0 mi Calm Calm - N/A   Overcast
10:55 AM 66.2 °F 60.8 °F 83% 29.90 in 0.2 mi North 3.5 mph - N/A   Overcast
11:15 AM 66.2 °F 60.8 °F 83% 29.90 in 1.0 mi Calm Calm - N/A   Overcast
11:35 AM 68.0 °F 60.8 °F 78% 29.90 in 10.0 mi Calm Calm - N/A   Overcast
11:55 AM 68.0 °F 62.6 °F 83% 29.90 in 10.0 mi ENE 3.5 mph - N/A   Overcast
12:15 PM 69.8 °F 62.6 °F 78% 29.90 in 4.0 mi NE 3.5 mph - N/A   Scattered Clouds
12:35 PM 69.8 °F 60.8 °F 73% 29.90 in 10.0 mi Calm Calm - N/A   Clear
12:55 PM 71.6 °F 62.6 °F 73% 29.90 in 7.0 mi Calm Calm - N/A   Mostly Cloudy
1:15 PM 71.6 °F 62.6 °F 73% 29.89 in 10.0 mi East 5.8 mph - N/A   Mostly Cloudy
1:35 PM 71.6 °F 60.8 °F 69% 29.89 in 10.0 mi ENE 4.6 mph - N/A   Overcast
1:55 PM 73.4 °F 62.6 °F 69% 29.89 in 7.0 mi NE 4.6 mph - N/A   Overcast
2:15 PM 73.4 °F 62.6 °F 69% 29.88 in 10.0 mi NE 3.5 mph - N/A   Overcast
2:35 PM 75.2 °F 62.6 °F 65% 29.87 in 10.0 mi ENE 4.6 mph - N/A   Mostly Cloudy
2:55 PM 73.4 °F 62.6 °F 69% 29.87 in 10.0 mi NE 5.8 mph - N/A   Mostly Cloudy
3:15 PM 73.4 °F 62.6 °F 69% 29.86 in 10.0 mi ENE 5.8 mph - N/A   Scattered Clouds
3:35 PM 75.2 °F 62.6 °F 65% 29.86 in 10.0 mi NE 5.8 mph - N/A   Scattered Clouds
3:55 PM 75.2 °F 62.6 °F 65% 29.86 in 10.0 mi NE 4.6 mph - N/A   Mostly Cloudy
4:15 PM 73.4 °F 62.6 °F 69% 29.86 in 7.0 mi ENE 5.8 mph - N/A   Mostly Cloudy
4:35 PM 71.6 °F 60.8 °F 69% 29.86 in 10.0 mi East 6.9 mph - N/A   Overcast
4:55 PM 73.4 °F 62.6 °F 69% 29.87 in 10.0 mi Calm Calm - N/A   Overcast
5:15 PM 69.8 °F 60.8 °F 73% 29.87 in 10.0 mi Calm Calm - N/A   Mostly Cloudy
5:35 PM 71.6 °F 62.6 °F 73% 29.87 in 10.0 mi SSW 4.6 mph - N/A   Scattered Clouds
5:55 PM 71.6 °F 62.6 °F 73% 29.87 in 10.0 mi South 5.8 mph - N/A   Mostly Cloudy
6:15 PM 69.8 °F 60.8 °F 73% 29.88 in 10.0 mi SW 4.6 mph - N/A   Mostly Cloudy
6:35 PM 69.8 °F 60.8 °F 73% 29.88 in 10.0 mi SW 3.5 mph - N/A   Scattered Clouds
6:55 PM 69.8 °F 62.6 °F 78% 29.89 in 2.5 mi NNW 3.5 mph - N/A   Mostly Cloudy
7:15 PM 68.0 °F 60.8 °F 78% 29.89 in 0.2 mi Calm Calm - N/A   Overcast
7:35 PM 68.0 °F 60.8 °F 78% 29.89 in 0.2 mi Calm Calm - N/A   Overcast
7:55 PM 68.0 °F 60.8 °F 78% 29.89 in 0.2 mi Calm Calm - N/A   Overcast
8:15 PM 66.2 °F 60.8 °F 83% 29.88 in 7.0 mi Calm Calm - N/A   Scattered Clouds
8:35 PM 66.2 °F 60.8 °F 83% 29.89 in 10.0 mi Calm Calm - N/A   Clear
8:55 PM 64.4 °F 60.8 °F 88% 29.89 in 10.0 mi SSE 3.5 mph - N/A   Clear
9:15 PM 64.4 °F 60.8 °F 88% 29.90 in 10.0 mi Calm Calm - N/A   Clear
9:35 PM 62.6 °F 60.8 °F 94% 29.90 in 10.0 mi Calm Calm - N/A   Clear
9:55 PM 62.6 °F 59.0 °F 88% 29.90 in 4.0 mi Calm Calm - N/A   Clear
10:15 PM 60.8 °F 59.0 °F 94% 29.90 in 5.0 mi Calm Calm - N/A   Clear
10:35 PM 62.6 °F 60.8 °F 94% 29.90 in 5.0 mi Calm Calm - N/A   Clear
10:55 PM 59.0 °F 57.2 °F 94% 29.91 in 2.0 mi Calm Calm - N/A   Clear
11:15 PM 60.8 °F 59.0 °F 94% 29.92 in 2.0 mi Calm Calm - N/A   Scattered Clouds
11:35 PM 60.8 °F 59.0 °F 94% 29.92 in 1.8 mi Calm Calm - N/A   Overcast
11:55 PM 60.8 °F 59.0 °F 94% 29.92 in 2.5 mi Calm Calm - N/A   Overcast